Tracking 25995 objects as of 19-Aug-2022
HD Live streaming from Space Station
objects crossing your sky now

TANSEI 3 DEB

Track TANSEI 3 DEB now!
10-day predictions


NORAD ID: 13133
Int'l Code: 1977-012J
Perigee: 809.7 km
Apogee: 3,653.3 km
Inclination: 65.8 °
Period: 132.3 minutes
Semi major axis: 8602 km
RCS: 0.0169 m2 (small)
Launch date: February 19, 1977
Source: Japan (JPN)
Launch site: KAGOSHIMA SPACE CENTER UNIVERSITY OF TOKYO (KSCUT)

Note: This is SATELLITE DEBRIS
aabbcc
Your satellite tracking list
Your tracking list is empty




NASA's NSSDC Master Catalog

Two Line Element Set (TLE):
1 13133U 77012J   22230.63750745  .00000262  00000-0  83691-3 0  9994
2 13133  65.8454 104.9085 1652777  52.7441 321.3072 10.88097689792338
Source of the keplerian elements: AFSPC